FW6385 Weather Reports


time (UTC)temp
C
wind
direction
speed
KPH
gust
KPH
rain 1hr
cm
rain 24hr
cm
rain mn
cm
humidity
%
barometer
mb
20260904065639 19 74 9.7 24.1 0.00 0.00 0.00 77 1008.1
20260904055629 18 24 9.7 19.3 0.00 0.00 0.00 77 1008.4
20260904045630 17 46 9.7 20.9 0.00 0.00 0.00 77 1009.3
20260904035628 16 50 9.7 20.9 0.00 0.00 0.00 80 1010.3
20260904025630 14 40 9.7 25.7 0.00 0.00 0.00 88 1011.8
20260904015630 14 60 9.7 27.4 0.00 0.00 0.00 82 1014.2
20260904005628 16 3 16.1 32.2 0.00 0.00 0.00 69 1014.6
20260903235628 16 60 9.7 17.7 0.00 0.00 0.00 70 1015.0
20260903232630 15 12 8.0 19.3 0.00 0.00 0.00 75 1015.1
20260903215629 14 55 9.7 22.5 0.00 0.00 0.00 77 1015.0
20260903205630 13 65 8.0 22.5 0.00 0.00 0.00 79 1014.6
20260903195626 13 93 9.7 22.5 0.00 0.00 0.00 84 1015.4
20260903185633 12 48 6.4 16.1 0.00 0.00 0.00 84 1016.8
20260903185627 13 41 9.7 19.3 0.00 0.00 0.00 85 1015.4
20260903172627 12 80 4.8 9.7 0.00 0.00 0.00 77 1017.2
20260903155627 12 92 0.0 3.2 0.00 0.00 0.00 73 1018.0
20260903145621 12 91 0.0 4.8 0.00 0.00 0.00 74 1018.7
20260903135620 12 171 0.0 3.2 0.00 0.00 0.00 76 1019.4
20260903125618 13 220 0.0 1.6 0.00 0.00 0.00 76 1019.9
20260903115619 13 220 0.0 1.6 0.00 0.00 0.00 75 1020.2
20260903105618 13 220 0.0 4.8 0.00 0.00 0.00 76 1020.1
20260903095617 13 221 1.6 11.3 0.00 0.00 0.00 77 1019.2
20260903085617 13 239 3.2 9.7 0.00 0.00 0.00 76 1019.0
20260903075617 14 225 4.8 14.5 0.00 0.00 0.00 72 1018.5